Back to catalog

ATLAS 41E R/B

AliveLEO
NORAD 15596·ROCKET BODY·🇺🇸 United States

Launched Mar 13, 1985 from Vandenberg Space Force Base

Loading…

Next Passes (next 24 hours)

TLE

FreshSource: Space-Track

Epoch: Sep 14, 2026, 07:59 UTC

1 15596U 85021B   26257.33316203  .00000139  00000-0  79663-4 0  9993
2 15596 108.0415  50.3983 0029926  73.0726 309.2124 14.44485055179950

Track ATLAS 41E R/B in real time with AllMySat

Download on the App Store